This is the latest recevied weather packets stored in our database for station/object KB9HUO. If no packets are shown the sender has not sent any weather packets the latest 10 day(s).
| Time | Temp. | Humidity | Pressure | Rain* | Wind** | Luminosity | Snow |
|---|---|---|---|---|---|---|---|
| 1778055032 | 8.89° C | 96% | 1010.1 hPa | 0 mm | - | 0 W/m² | - |
| 1778054729 | 8.89° C | 96% | 1010.1 hPa | 0 mm | - | 0 W/m² | - |
| 1778054426 | 8.89° C | 96% | 1010.2 hPa | 0 mm | - | 0 W/m² | - |
| 1778054124 | 8.89° C | 96% | 1010.4 hPa | 0 mm | - | 0 W/m² | - |
| 1778053820 | 8.89° C | 97% | 1010.4 hPa | 0 mm | - | 0 W/m² | - |
| 1778053518 | 8.89° C | 97% | 1010.3 hPa | 0 mm | - | 0 W/m² | - |
| 1778053215 | 8.89° C | 97% | 1010.2 hPa | 0 mm | - | 0 W/m² | - |
| 1778052913 | 8.89° C | 97% | 1010 hPa | 0 mm | - | 0 W/m² | - |
| 1778052610 | 8.89° C | 97% | 1010.2 hPa | 0 mm | - | 0 W/m² | - |
| 1778052307 | 8.89° C | 98% | 1010.4 hPa | 0 mm | - | 0 W/m² | - |
| 1778052004 | 8.89° C | 98% | 1010.5 hPa | 0 mm | - | 0 W/m² | - |
| 1778051702 | 8.89° C | 98% | 1010.4 hPa | 0 mm | - | 0 W/m² | - |
| 1778051399 | 8.89° C | 98% | 1010.2 hPa | 1.78 mm | - | 0 W/m² | - |
| 1778051096 | 8.89° C | 98% | 1010.1 hPa | 1.78 mm | - | 0 W/m² | - |
| 1778050793 | 8.89° C | 98% | 1010 hPa | 0 mm | - | 0 W/m² | - |
| 1778050491 | 8.89° C | 98% | 1009.9 hPa | 0 mm | - | 0 W/m² | - |
| 1778050187 | 8.89° C | 98% | 1009.8 hPa | 0 mm | - | 0 W/m² | - |
| 1778049884 | 8.89° C | 98% | 1009.9 hPa | 1.27 mm | - | 0 W/m² | - |
| 1778049580 | 8.89° C | 98% | 1009.9 hPa | 1.27 mm | - | 0 W/m² | - |
| 1778049278 | 8.89° C | 98% | 1009.9 hPa | 0 mm | - | 0 W/m² | - |
| 1778048975 | 8.89° C | 98% | 1009.7 hPa | 1.78 mm | - | 0 W/m² | - |
| 1778048674 | 8.89° C | 98% | 1009.9 hPa | 1.78 mm | - | 0 W/m² | - |
| 1778048369 | 8.89° C | 98% | 1009.9 hPa | 1.78 mm | - | 0 W/m² | - |
| 1778048066 | 8.89° C | 98% | 1009.9 hPa | 3.05 mm | - | 0 W/m² | - |
| 1778047764 | 8.89° C | 98% | 1009.7 hPa | 3.05 mm | - | 0 W/m² | - |
* Rain latest hour (hover to see other rain measurements)
** Current wind speed in m/s (hover to see current wind gust speed)